All Stations Radar Satellite Rainfall Station Map Enhanced Site
Observations: Wind Gusts Humidity Temperature    
Forecasts: Wind Gusts Humidity Temperature    

Mt. Soledad (578) Station Data (Station Map)

Red Flag Warning: No
Fire Weather Zone: 243
SDGE Region: Beach Cities
Lat/Lon: 32.814/-117.241

Observations

Time (PDT)Wind Spd/GustTempRHFuel Moisture
9/1 4:10pmSSW 4 G 1171°74%10.55%
9/1 4:00pmSSW 5 G 1171°75%10.57%
9/1 3:50pmSSW 5 G 1072°73%10.54%
9/1 3:40pmSW 5 G 1171°74%10.6%
9/1 3:30pmSSW 5 G 1171°74%10.63%
9/1 3:20pmSW 6 G 1171°73%10.63%
9/1 3:10pmS 6 G 1072°73%10.69%
9/1 3:00pmSSW 6 G 1171°74%10.73%
9/1 2:50pmSSW 6 G 1271°73%10.76%
9/1 2:40pmS 6 G 1172°73%10.78%
9/1 2:30pmSW 6 G 1171°73%10.83%
9/1 2:20pmSSW 5 G 1272°72%10.87%
9/1 2:10pmSSW 5 G 1171°74%10.93%
9/1 2:00pmSSW 6 G 1271°75%10.93%
9/1 1:50pmSW 6 G 1270°76%10.93%
9/1 1:40pmSSW 6 G 1071°74%10.93%
9/1 1:30pmSSW 6 G 1271°74%10.93%
9/1 1:20pmSSW 6 G 1172°72%10.96%
9/1 1:10pmSSW 5 G 1073°72%10.99%
9/1 1:00pmSSW 6 G 1271°74%11.03%
9/1 12:50pmSSW 6 G 1272°73%10.96%
9/1 12:40pmS 6 G 1272°75%10.95%
9/1 12:30pmS 6 G 1272°74%11.02%
9/1 12:20pmSSW 6 G 1472°74%11.21%
9/1 12:10pmSSW 5 G 1073°73%11.34%
9/1 12:00pmSSW 5 G 972°73%11.38%
9/1 11:50amSSW 5 G 1272°74%11.44%
9/1 11:40amSSW 5 G 1172°74%11.56%
9/1 11:30amSSW 6 G 1272°74%11.67%
9/1 11:20amSSW 4 G 1073°73%11.77%
9/1 11:10amS 7 G 1372°74%11.86%
9/1 11:00amS 5 G 1172°75%12.04%
9/1 10:50amS 6 G 1172°75%12.14%
9/1 10:40amSSE 7 G 1072°73%12.25%
9/1 10:30amSSE 6 G 1272°72%12.4%
9/1 10:20amSE 6 G 1171°75%12.57%
9/1 10:10amSSE 7 G 1170°76%12.73%
9/1 10:00amSSE 7 G 1270°77%12.88%
9/1 9:50amSSE 6 G 1170°78%12.98%
9/1 9:40amSE 6 G 1170°77%13.19%
9/1 9:30amSE 7 G 1470°77%13.38%
9/1 9:20amSE 6 G 1169°80%13.68%
9/1 9:10amSE 6 G 1269°79%13.74%
9/1 9:00amSE 5 G 969°80%13.97%
9/1 8:50amSE 5 G 969°80%14.1%
9/1 8:40amSSE 6 G 1268°82%14.35%
9/1 8:30amSSE 5 G 1068°83%14.52%
9/1 8:20amS 5 G 967°83%14.6%
9/1 8:10amSSE 5 G 867°84%14.73%
9/1 8:00amSE 5 G 967°85%14.84%
9/1 7:50amSE 5 G 967°85%14.91%
9/1 7:40amSSE 5 G 967°86%14.97%
9/1 7:30amSSE 5 G 1167°87%15.03%
9/1 7:20amSSE 5 G 867°87%15.08%
9/1 7:10amSE 5 G 1167°87%15.11%
9/1 7:00amSE 5 G 967°88%15.13%
9/1 6:50amSE 6 G 967°88%15.16%
9/1 6:40amSE 5 G 1067°88%15.16%
9/1 6:30amSE 4 G 866°89%15.16%
9/1 6:20amSE 5 G 866°89%15.16%
9/1 6:10amSE 4 G 866°89%15.16%
9/1 6:00amSE 5 G 1066°89%15.14%
9/1 5:50amSE 5 G 966°89%15.12%
9/1 5:40amSE 4 G 866°89%15.11%
9/1 5:30amSE 5 G 866°89%15.09%
9/1 5:20amSE 5 G 966°89%15.08%
9/1 5:10amSSE 5 G 967°89%15.06%
9/1 5:00amSSE 6 G 1166°89%15.04%
9/1 4:50amSE 6 G 966°89%15.03%
9/1 4:40amSSE 6 G 966°89%15.02%
9/1 4:30amSE 6 G 966°89%15%
9/1 4:20amSE 6 G 966°89%14.99%
9/1 4:10amSSE 6 G 1166°89%14.97%
9/1 4:00amSSE 6 G 1166°89%14.95%
9/1 3:50amSSE 6 G 1066°89%14.95%
9/1 3:40amSSE 6 G 1166°89%14.94%
9/1 3:30amSSE 6 G 1166°89%14.92%
9/1 3:20amSSE 5 G 1067°89%14.92%
9/1 3:10amSSE 5 G 1067°89%14.92%
9/1 3:00amSSE 5 G 1067°89%14.91%
9/1 2:50amSSE 5 G 867°89%14.89%
9/1 2:40amSSE 4 G 867°89%14.87%
9/1 2:30amSSE 5 G 867°89%14.85%
9/1 2:20amSSE 4 G 867°89%14.81%
9/1 2:10amSSE 5 G 867°89%14.79%
9/1 2:00amSSE 4 G 767°89%14.78%
9/1 1:50amSSE 6 G 867°89%14.76%
9/1 1:40amSSE 5 G 1067°89%14.74%
9/1 1:30amSSE 4 G 867°90%14.74%
9/1 1:20amSSE 4 G 767°90%14.73%
9/1 1:10amSSE 5 G 967°90%14.7%
9/1 1:00amSSE 5 G 1067°90%14.68%
9/1 12:50amSSE 4 G 867°90%14.66%
9/1 12:40amSSE 5 G 867°91%14.6%
9/1 12:30amSE 5 G 767°91%14.56%
9/1 12:20amSSE 5 G 867°91%14.51%
9/1 12:10amSSE 5 G 868°91%14.47%
9/1 12:00amSSE 5 G 868°91%14.42%
8/31 11:50pmSSE 5 G 1068°91%14.39%
8/31 11:40pmSSE 5 G 968°91%14.37%
8/31 11:30pmSSE 5 G 868°91%14.32%
8/31 11:20pmSSE 4 G 968°91%14.26%
8/31 11:10pmSSE 4 G 767°91%14.17%
8/31 11:00pmSSE 4 G 668°91%14.08%
8/31 10:50pmSSE 4 G 668°91%13.98%
8/31 10:40pmSSE 3 G 768°91%13.89%
8/31 10:30pmSSE 3 G 668°91%13.8%
8/31 10:20pmSSE 3 G 568°90%13.66%
8/31 10:10pmSSE 3 G 668°90%13.56%
8/31 10:00pmSSE 3 G 768°90%13.45%
8/31 9:50pmSSE 3 G 668°90%13.34%
8/31 9:40pmSSE 4 G 768°90%13.22%
8/31 9:30pmSE 4 G 768°90%13.08%
8/31 9:20pmSE 3 G 668°90%12.94%
8/31 9:10pmSSE 4 G 768°89%12.85%
8/31 9:00pmSSE 4 G 669°89%12.73%
8/31 8:50pmSE 4 G 769°89%12.6%
8/31 8:40pmSSE 3 G 669°89%12.49%
8/31 8:30pmSE 4 G 769°89%12.35%
8/31 8:20pmSSE 4 G 670°88%12.24%
8/31 8:10pmSE 3 G 770°88%12.12%
8/31 8:00pmSSE 3 G 570°88%12%
8/31 7:50pmSSW 4 G 770°88%11.9%
8/31 7:40pmS 3 G 570°88%11.79%
8/31 7:30pmSSW 3 G 670°88%11.65%
8/31 7:20pmS 3 G 670°87%11.52%
8/31 7:10pmS 3 G 670°87%11.38%
8/31 7:00pmS 3 G 671°86%11.26%
8/31 6:50pmS 3 G 671°86%11.14%
8/31 6:40pmS 4 G 871°85%11.01%
8/31 6:30pmSSW 4 G 871°85%10.97%
8/31 6:20pmSSW 4 G 872°84%10.88%
8/31 6:10pmS 4 G 972°83%10.86%
8/31 6:00pmSSW 4 G 772°82%10.85%
8/31 5:50pmSSW 4 G 973°82%10.8%
8/31 5:40pmS 4 G 772°82%10.75%
8/31 5:30pmSSW 5 G 873°82%10.75%
8/31 5:20pmSW 3 G 873°80%10.73%
8/31 5:10pmSW 4 G 873°81%10.75%
8/31 5:00pmSW 4 G 872°83%10.76%
8/31 4:50pmSW 4 G 972°83%10.67%
8/31 4:40pmSSW 5 G 1072°81%10.6%
8/31 4:30pmSSW 4 G 873°81%10.68%
8/31 4:20pmS 5 G 973°80%10.65%
8/31 4:10pmSSW 4 G 774°79%10.68%
8/31 4:00pmSW 4 G 874°79%10.74%
8/31 3:50pmSW 4 G 873°79%10.72%
8/31 3:40pmSW 4 G 873°79%10.76%
8/31 3:30pmSW 4 G 874°78%10.8%
8/31 3:20pmWSW 4 G 873°78%10.83%
8/31 3:10pmSW 4 G 1173°79%10.88%
8/31 3:00pmSW 4 G 873°78%10.91%
8/31 2:50pmSW 4 G 873°78%10.96%
8/31 2:40pmSSW 5 G 1072°79%10.96%
8/31 2:30pmSSW 4 G 1072°79%11.01%
8/31 2:20pmSW 5 G 1072°78%11.02%
8/31 2:10pmSW 4 G 872°78%11.11%
8/31 2:00pmSW 4 G 873°76%11.14%
8/31 1:50pmSW 4 G 972°78%11.19%
8/31 1:40pmWSW 5 G 872°79%11.17%
8/31 1:30pmSW 5 G 971°81%11.18%
8/31 1:20pmSW 4 G 971°82%11.21%
8/31 1:10pmSW 4 G 970°84%11.21%
8/31 1:00pmSW 5 G 970°84%11.19%
8/31 12:50pmSW 5 G 970°83%11.11%
8/31 12:40pmSW 4 G 871°83%11.02%
8/31 12:30pmSW 5 G 970°83%11.15%
8/31 12:20pmSW 4 G 1071°82%11.29%
8/31 12:10pmSW 4 G 971°82%11.4%
8/31 12:00pmSW 5 G 1071°82%11.41%
8/31 11:50amSW 5 G 970°83%11.47%
8/31 11:40amSW 5 G 871°81%11.52%
8/31 11:30amWSW 4 G 971°81%11.67%
8/31 11:20amSW 5 G 871°81%11.77%
8/31 11:10amSW 4 G 872°80%11.88%
8/31 11:00amSW 4 G 871°81%12%
8/31 10:50amSW 4 G 771°82%12.11%
8/31 10:40amSW 5 G 871°82%12.24%
8/31 10:30amSW 4 G 871°82%12.33%
8/31 10:20amWSW 4 G 970°83%12.47%
8/31 10:10amSW 4 G 871°82%12.57%
8/31 10:00amSW 3 G 771°83%12.76%
8/31 9:50amSW 4 G 870°85%12.91%
8/31 9:40amSW 4 G 870°84%13.04%
8/31 9:30amSW 4 G 870°84%13.17%
8/31 9:20amSW 4 G 770°83%13.36%
8/31 9:10amSW 3 G 772°79%13.56%
8/31 9:00amSSE 2 G 572°78%13.86%
8/31 8:50amNNE 1 G 371°81%14.22%
8/31 8:40amWSW 1 G 369°85%14.63%
8/31 8:30amS 0 G 268°89%15.08%
8/31 8:20amENE 1 G 367°91%15.55%
8/31 8:10amSSE 1 G 266°92%15.67%
8/31 8:00amSE 2 G 466°93%15.77%
8/31 7:50amESE 2 G 466°94%15.97%
8/31 7:40amNE 2 G 366°94%16.13%
8/31 7:30amN 1 G 266°95%16.23%
8/31 7:20amE 3 G 566°95%16.28%
8/31 7:10amE 1 G 365°95%16.33%
8/31 7:00amESE 2 G 565°95%16.32%
8/31 6:50amSSE 3 G 665°95%16.3%
8/31 6:40amS 3 G 566°95%16.28%
8/31 6:30amSSE 3 G 566°95%16.26%
8/31 6:20amSSE 2 G 566°95%16.24%
8/31 6:10amSSE 2 G 366°95%16.18%
8/31 6:00amSSE 3 G 466°94%16.12%